FW7213 Weather Reports


Display with metric or nautical units.
time (UTC)temp
F
wind
direction
speed
MPH
gust
MPH
rain 1hr
in
rain 24hr
in
rain mn
in
humidity
%
barometer
mb
20260901022058 79 0 0.0 0.0 0.00 0.00 0.00 87 1018.7
20260901021559 79 0 0.0 0.0 0.00 0.00 0.00 87 1018.8
20260901021059 79 0 0.0 0.0 0.00 0.00 0.00 87 1018.8
20260901020557 79 0 0.0 0.0 0.00 0.00 0.00 87 1018.6
20260901020104 80 0 0.0 0.0 0.00 0.00 0.00 87 1018.6
20260901015558 80 0 0.0 0.0 0.00 0.00 0.00 86 1018.7
20260901015117 80 0 0.0 0.0 0.00 0.00 0.00 86 1018.5
20260901014602 80 0 0.0 0.0 0.00 0.00 0.00 85 1018.3
20260901014058 80 0 0.0 0.0 0.00 0.00 0.00 85 1018.3
20260901013556 80 0 0.0 0.0 0.00 0.00 0.00 83 1018.3
20260901013105 80 0 0.0 0.0 0.00 0.00 0.00 86 1018.3
20260901012555 80 0 0.0 0.0 0.00 0.00 0.00 84 1018.2
20260901012059 81 0 0.0 0.0 0.00 0.00 0.00 84 1018.3
20260901011600 81 0 0.0 0.0 0.00 0.00 0.00 84 1018.1
20260901011058 81 0 0.0 0.0 0.00 0.00 0.00 83 1018.1
20260901010558 81 0 0.0 2.0 0.00 0.00 0.00 82 1018.0
20260901010116 81 0 0.0 2.0 0.00 0.00 0.00 81 1017.8
20260901005558 82 0 0.0 2.0 0.00 0.00 0.00 81 1017.7
20260901005057 82 0 0.0 0.0 0.00 0.00 0.00 82 1017.6
20260901004606 83 0 0.0 1.0 0.00 0.00 0.00 81 1017.4
20260901004058 83 0 0.0 1.0 0.00 0.00 0.00 83 1017.4
20260901003558 84 0 0.0 1.0 0.00 0.00 0.00 81 1017.4
20260901003105 84 0 0.0 1.0 0.00 0.00 0.00 79 1017.4
20260901002558 84 0 0.0 1.0 0.00 0.00 0.00 79 1017.4
20260901002058 84 0 0.0 0.0 0.00 0.00 0.00 76 1017.4
20260901001604 85 0 0.0 0.0 0.00 0.00 0.00 77 1017.3
20260901001100 85 0 0.0 0.0 0.00 0.00 0.00 71 1017.2
20260901000558 86 0 0.0 0.0 0.00 0.00 0.00 76 1017.2
20260901000111 87 0 0.0 0.0 0.00 0.00 0.00 72 1017.2
20260831235559 87 0 0.0 1.0 0.00 0.00 0.00 69 1017.3
20260831235059 88 0 0.0 1.0 0.00 0.00 0.00 69 1017.2
20260831234602 88 0 0.0 1.0 0.00 0.00 0.00 64 1017.2
20260831234101 89 0 0.0 1.0 0.00 0.00 0.00 63 1017.2
20260831233558 89 0 0.0 2.0 0.00 0.00 0.00 65 1017.2
20260831233111 90 0 0.0 3.0 0.00 0.00 0.00 65 1017.3
20260831232558 90 77 0.0 3.0 0.00 0.00 0.00 62 1017.2
20260831232058 90 0 1.0 3.0 0.00 0.00 0.00 64 1017.3
20260831231602 90 101 0.0 3.0 0.00 0.00 0.00 61 1017.1
20260831231059 91 94 0.0 4.0 0.00 0.00 0.00 60 1017.2
20260831230600 91 0 1.0 5.0 0.00 0.00 0.00 61 1017.3
20260831230115 92 114 1.0 5.0 0.00 0.00 0.00 60 1017.2
20260831225601 92 117 1.0 5.0 0.00 0.00 0.00 59 1017.2
20260831225058 92 51 1.0 5.0 0.00 0.00 0.00 59 1017.3
20260831224606 92 90 1.0 5.0 0.00 0.00 0.00 60 1017.3
20260831224058 91 115 0.0 5.0 0.00 0.00 0.00 61 1017.3
20260831223559 90 0 0.0 1.0 0.00 0.00 0.00 65 1017.4
20260831223111 90 0 0.0 1.0 0.00 0.00 0.00 62 1017.4
20260831222558 91 0 0.0 3.0 0.00 0.00 0.00 63 1017.4
20260831222057 92 99 0.0 6.0 0.00 0.00 0.00 58 1017.5
20260831221602 94 128 1.0 6.0 0.00 0.00 0.00 60 1017.4
20260831221058 94 84 0.0 3.0 0.00 0.00 0.00 57 1017.4
20260831220558 94 100 0.0 4.0 0.00 0.00 0.00 59 1017.4
20260831220059 94 0 1.0 4.0 0.00 0.00 0.00 60 1017.3
20260831215558 94 142 1.0 4.0 0.00 0.00 0.00 55 1017.4
20260831215058 94 0 0.0 4.0 0.00 0.00 0.00 56 1017.4
20260831214610 94 90 1.0 5.0 0.00 0.00 0.00 58 1017.4
20260831214101 94 86 1.0 5.0 0.00 0.00 0.00 55 1017.4
20260831213557 94 99 0.0 3.0 0.00 0.00 0.00 61 1017.4
20260831213106 94 79 1.0 3.0 0.00 0.00 0.00 57 1017.5
20260831212559 94 147 0.0 3.0 0.00 0.00 0.00 57 1017.5
20260831212059 94 120 0.0 7.0 0.00 0.00 0.00 58 1017.6
20260831211602 93 115 3.0 7.0 0.00 0.00 0.00 57 1017.7
20260831211059 93 156 1.0 3.0 0.00 0.00 0.00 60 1017.7
20260831210601 92 127 1.0 4.0 0.00 0.00 0.00 59 1017.7
20260831210104 91 336 0.0 4.0 0.00 0.00 0.00 64 1017.8
20260831205601 90 98 0.0 4.0 0.00 0.00 0.00 64 1017.8
20260831205055 90 86 0.0 4.0 0.00 0.00 0.00 63 1017.8
20260831204608 90 91 1.0 4.0 0.00 0.00 0.00 62 1017.9
20260831204057 91 98 0.0 4.0 0.00 0.00 0.00 65 1017.9
20260831203556 92 94 0.0 4.0 0.00 0.00 0.00 61 1018.0
20260831203115 92 98 0.0 3.0 0.00 0.00 0.00 62 1017.9
20260831202555 93 25 1.0 3.0 0.00 0.00 0.00 61 1018.0
20260831202058 92 94 0.0 3.0 0.00 0.00 0.00 59 1018.1
20260831201604 93 0 1.0 3.0 0.00 0.00 0.00 61 1018.1
20260831201100 93 8 1.0 5.0 0.00 0.00 0.00 59 1018.2
20260831200558 93 138 2.0 5.0 0.00 0.00 0.00 62 1018.2
20260831200110 92 143 0.0 5.0 0.00 0.00 0.00 59 1018.3
20260831195558 92 142 2.0 7.0 0.00 0.00 0.00 62 1018.4
20260831195058 91 143 1.0 8.0 0.00 0.00 0.00 64 1018.5
20260831194637 91 96 3.0 8.0 0.00 0.00 0.00 60 1018.6
20260831194055 92 94 1.0 6.0 0.00 0.00 0.00 60 1018.6
20260831193555 91 169 0.0 4.0 0.00 0.00 0.00 65 1018.5
20260831193101 90 80 0.0 5.0 0.00 0.00 0.00 67 1018.6
20260831192559 90 113 1.0 6.0 0.00 0.00 0.00 62 1018.7
20260831192059 91 100 1.0 6.0 0.00 0.00 0.00 64 1018.6
20260831191602 92 120 2.0 6.0 0.00 0.00 0.00 60 1018.7
20260831191103 92 163 0.0 5.0 0.00 0.00 0.00 61 1018.8
20260831190559 91 0 1.0 5.0 0.00 0.00 0.00 65 1018.7
20260831190109 91 101 1.0 5.0 0.00 0.00 0.00 67 1018.8
20260831185556 90 155 0.0 2.0 0.00 0.00 0.00 67 1018.9
20260831185056 89 340 0.0 2.0 0.00 0.00 0.00 64 1018.9
20260831184600 90 74 0.0 2.0 0.00 0.00 0.00 63 1018.9
20260831184102 91 99 0.0 2.0 0.00 0.00 0.00 66 1019.1
20260831183558 90 0 0.0 6.0 0.00 0.00 0.00 70 1019.1
20260831183106 89 108 1.0 6.0 0.00 0.00 0.00 67 1019.1
20260831182555 89 86 1.0 5.0 0.00 0.00 0.00 67 1019.1
20260831182100 89 92 0.0 1.0 0.00 0.00 0.00 70 1019.2
20260831181611 90 0 0.0 4.0 0.00 0.00 0.00 66 1019.2
20260831181059 90 351 0.0 4.0 0.00 0.00 0.00 68 1019.3
20260831180556 89 0 1.0 4.0 0.00 0.00 0.00 69 1019.3
20260831180115 89 117 0.0 4.0 0.00 0.00 0.00 69 1019.4
20260831175557 89 0 1.0 4.0 0.00 0.00 0.00 71 1019.4
20260831175059 90 100 1.0 4.0 0.00 0.00 0.00 70 1019.4
20260831174601 89 101 1.0 4.0 0.00 0.00 0.00 68 1019.5
20260831174057 89 91 2.0 4.0 0.00 0.00 0.00 69 1019.5
20260831173558 89 79 0.0 6.0 0.00 0.00 0.00 69 1019.7
20260831173105 88 0 0.0 6.0 0.00 0.00 0.00 72 1019.7
20260831172558 88 0 0.0 2.0 0.00 0.00 0.00 72 1019.7
20260831172058 89 334 1.0 3.0 0.00 0.00 0.00 73 1019.8
20260831171603 89 0 0.0 3.0 0.00 0.00 0.00 74 1019.7
20260831171058 88 86 1.0 3.0 0.00 0.00 0.00 74 1019.7
20260831170559 87 129 0.0 3.0 0.00 0.00 0.00 72 1019.8
20260831170104 88 0 0.0 3.0 0.00 0.00 0.00 73 1019.9
20260831165558 88 85 0.0 2.0 0.00 0.00 0.00 71 1019.9
20260831165058 88 0 0.0 2.0 0.00 0.00 0.00 71 1020.0
20260831164601 89 0 0.0 5.0 0.00 0.00 0.00 71 1020.0
20260831164057 88 150 1.0 5.0 0.00 0.00 0.00 76 1020.1
20260831163555 88 149 1.0 4.0 0.00 0.00 0.00 75 1020.0
20260831163103 87 0 0.0 4.0 0.00 0.00 0.00 72 1020.1
20260831162559 87 144 1.0 3.0 0.00 0.00 0.00 78 1020.1
20260831162100 87 0 0.0 3.0 0.00 0.00 0.00 74 1020.1
20260831161603 86 139 1.0 4.0 0.00 0.00 0.00 78 1020.1
20260831161055 86 0 1.0 4.0 0.00 0.00 0.00 77 1020.1
20260831160555 86 18 0.0 5.0 0.00 0.00 0.00 80 1020.2
20260831160109 85 0 1.0 5.0 0.00 0.00 0.00 78 1020.2
20260831155559 85 0 1.0 4.0 0.00 0.00 0.00 82 1020.2
20260831155059 85 0 1.0 4.0 0.00 0.00 0.00 82 1020.1
20260831154633 84 86 0.0 4.0 0.00 0.00 0.00 81 1020.2
20260831154059 84 26 0.0 4.0 0.00 0.00 0.00 80 1020.2
20260831153558 84 0 0.0 4.0 0.00 0.00 0.00 81 1020.3
20260831153107 84 311 0.0 4.0 0.00 0.00 0.00 81 1020.3
20260831152555 84 157 0.0 3.0 0.00 0.00 0.00 81 1020.4
20260831152058 83 162 1.0 3.0 0.00 0.00 0.00 82 1020.4
20260831151615 83 0 0.0 6.0 0.00 0.00 0.00 82 1020.4
20260831151058 83 65 0.0 6.0 0.00 0.00 0.00 85 1020.4
20260831150558 82 0 0.0 4.0 0.00 0.00 0.00 85 1020.4
20260831150107 82 99 1.0 4.0 0.00 0.00 0.00 84 1020.4
20260831145557 82 0 1.0 3.0 0.00 0.00 0.00 84 1020.4
20260831145058 82 139 0.0 1.0 0.00 0.00 0.00 86 1020.5
20260831144604 81 105 0.0 3.0 0.00 0.00 0.00 87 1020.4
20260831144058 81 0 0.0 4.0 0.00 0.00 0.00 88 1020.5
20260831143556 80 153 0.0 4.0 0.00 0.00 0.00 88 1020.5
20260831143101 80 72 0.0 3.0 0.00 0.00 0.00 87 1020.5
20260831142556 80 93 0.0 4.0 0.00 0.00 0.00 88 1020.5
20260831142055 80 0 0.0 4.0 0.00 0.00 0.00 89 1020.6
20260831141600 79 86 1.0 4.0 0.00 0.00 0.00 88 1020.6
20260831141056 79 0 0.0 1.0 0.00 0.00 0.00 90 1020.6
20260831140559 79 143 0.0 4.0 0.00 0.00 0.00 90 1020.6
20260831140106 79 143 1.0 4.0 0.00 0.00 0.00 89 1020.6
20260831135600 79 148 0.0 2.0 0.00 0.00 0.00 89 1020.5
20260831135059 79 0 0.0 2.0 0.00 0.00 0.00 90 1020.6
20260831134606 78 117 0.0 3.0 0.00 0.00 0.00 94 1020.5
20260831134058 78 0 1.0 3.0 0.00 0.00 0.00 91 1020.5
20260831133558 77 0 0.0 4.0 0.00 0.00 0.00 92 1020.6
20260831133104 77 0 1.0 4.0 0.00 0.00 0.00 92 1020.5
20260831132556 77 78 0.0 3.0 0.00 0.00 0.00 92 1020.5
20260831132055 77 142 1.0 4.0 0.00 0.00 0.00 92 1020.3
20260831131614 77 94 1.0 4.0 0.00 0.00 0.00 92 1020.2
20260831131058 76 110 1.0 3.0 0.00 0.00 0.00 92 1020.3
20260831130558 76 103 0.0 1.0 0.00 0.00 0.00 93 1020.2
20260831130112 76 0 0.0 5.0 0.00 0.00 0.00 94 1020.2
20260831125559 75 91 1.0 5.0 0.00 0.00 0.00 95 1020.2
20260831125059 75 0 1.0 4.0 0.00 0.00 0.00 95 1020.3
20260831124609 74 97 1.0 4.0 0.00 0.00 0.00 95 1020.3
20260831124055 74 0 0.0 3.0 0.00 0.00 0.00 95 1020.2
20260831123555 74 0 0.0 3.0 0.00 0.00 0.00 96 1020.1
20260831123103 74 94 0.0 2.0 0.00 0.00 0.00 96 1020.0
20260831122559 74 0 0.0 6.0 0.00 0.00 0.00 96 1020.0
20260831122059 74 91 0.0 6.0 0.00 0.00 0.00 96 1019.9
20260831121609 73 0 0.0 3.0 0.00 0.00 0.00 96 1019.8
20260831121059 73 0 0.0 3.0 0.00 0.00 0.00 97 1019.8
20260831120558 73 110 0.0 3.0 0.00 0.00 0.00 97 1019.6
20260831120109 73 110 0.0 2.0 0.00 0.00 0.00 97 1019.4
20260831115600 73 0 0.0 2.0 0.00 0.00 0.00 97 1019.5
20260831115059 73 0 0.0 1.0 0.00 0.00 0.00 97 1019.4
20260831114603 72 155 0.0 1.0 0.00 0.00 0.00 97 1019.3
20260831114058 72 0 0.0 1.0 0.00 0.00 0.00 97 1019.3
20260831113555 72 105 0.0 1.0 0.00 0.00 0.00 97 1019.2
20260831113103 72 0 0.0 2.0 0.00 0.00 0.00 97 1019.1
20260831112554 72 0 0.0 2.0 0.00 0.00 0.00 97 1019.1
20260831112055 72 0 0.0 2.0 0.00 0.00 0.00 97 1019.1
20260831111606 72 0 0.0 2.0 0.00 0.00 0.00 97 1019.0
20260831111058 72 0 0.0 2.0 0.00 0.00 0.00 97 1018.9
20260831110558 72 0 0.0 1.0 0.00 0.00 0.00 97 1018.8
20260831110107 73 0 0.0 1.0 0.00 0.00 0.00 97 1018.7
20260831105558 73 0 0.0 2.0 0.00 0.00 0.00 97 1018.6
20260831105059 73 89 0.0 2.0 0.00 0.00 0.00 97 1018.6
20260831104611 73 0 0.0 1.0 0.00 0.00 0.00 97 1018.6
20260831104056 73 0 0.0 1.0 0.00 0.00 0.00 97 1018.6
20260831103555 73 0 0.0 1.0 0.00 0.00 0.00 97 1018.7
20260831103105 73 0 0.0 1.0 0.00 0.00 0.00 97 1018.6
20260831102558 73 0 0.0 1.0 0.00 0.00 0.00 97 1018.7
20260831102059 73 0 0.0 1.0 0.00 0.00 0.00 97 1018.6
20260831101604 73 0 0.0 2.0 0.00 0.00 0.00 97 1018.5
20260831101056 73 0 0.0 2.0 0.00 0.00 0.00 97 1018.4
20260831100559 73 0 0.0 2.0 0.00 0.00 0.00 97 1018.4
20260831100127 73 97 0.0 2.0 0.00 0.00 0.00 97 1018.3
20260831095556 73 0 0.0 2.0 0.00 0.00 0.00 97 1018.4
20260831095058 73 0 0.0 1.0 0.00 0.00 0.00 97 1018.4
20260831094602 73 94 0.0 1.0 0.00 0.00 0.00 97 1018.3
20260831094058 73 0 0.0 1.0 0.00 0.00 0.00 97 1018.4
20260831093556 73 0 0.0 1.0 0.00 0.00 0.00 97 1018.3
20260831093106 73 0 0.0 1.0 0.00 0.00 0.00 97 1018.3
20260831092555 73 0 0.0 1.0 0.00 0.00 0.00 97 1018.4
20260831092056 73 0 0.0 1.0 0.00 0.00 0.00 97 1018.3
20260831091604 73 0 0.0 0.0 0.00 0.00 0.00 97 1018.2
20260831091058 73 0 0.0 0.0 0.00 0.00 0.00 97 1018.2
20260831090558 73 0 0.0 0.0 0.00 0.00 0.00 97 1018.2
20260831090104 73 0 0.0 0.0 0.00 0.00 0.00 97 1018.3
20260831085558 73 0 0.0 0.0 0.00 0.00 0.00 97 1018.3
20260831085054 73 0 0.0 0.0 0.00 0.00 0.00 97 1018.4
20260831084610 73 0 0.0 0.0 0.00 0.00 0.00 96 1018.1
20260831084058 73 0 0.0 0.0 0.00 0.00 0.00 96 1018.2
20260831083558 73 0 0.0 0.0 0.00 0.00 0.00 96 1018.3
20260831083105 73 0 0.0 0.0 0.00 0.00 0.00 96 1018.2
20260831082558 74 0 0.0 0.0 0.00 0.00 0.00 96 1018.3
20260831082056 74 0 0.0 1.0 0.00 0.00 0.00 96 1018.3
20260831081605 74 0 0.0 1.0 0.00 0.00 0.00 96 1018.2
20260831081056 74 0 0.0 1.0 0.00 0.00 0.00 96 1018.3
20260831080559 74 0 0.0 1.0 0.00 0.00 0.00 95 1018.3
20260831080106 74 0 0.0 1.0 0.00 0.00 0.00 95 1018.3
20260831075556 74 0 0.0 1.0 0.00 0.00 0.00 95 1018.4
20260831075058 74 0 0.0 1.0 0.00 0.00 0.00 95 1018.4
20260831074608 74 0 0.0 1.0 0.00 0.00 0.00 95 1018.4
20260831074059 74 0 0.0 3.0 0.00 0.00 0.00 95 1018.4
20260831073559 74 0 0.0 3.0 0.00 0.00 0.00 94 1018.3
20260831073112 74 0 0.0 3.0 0.00 0.00 0.00 94 1018.4
20260831072558 75 0 0.0 1.0 0.00 0.00 0.00 94 1018.4
20260831072058 75 0 0.0 2.0 0.00 0.00 0.00 94 1018.4
20260831071601 75 0 0.0 2.0 0.00 0.00 0.00 94 1018.4
20260831071058 75 0 0.0 2.0 0.00 0.00 0.00 94 1018.5
20260831070558 75 0 0.0 2.0 0.00 0.00 0.00 94 1018.4
20260831070113 75 0 0.0 2.0 0.00 0.00 0.00 94 1018.5
20260831065558 75 0 0.0 2.0 0.00 0.00 0.00 94 1018.5
20260831065058 75 0 0.0 2.0 0.00 0.00 0.00 94 1018.5
20260831064600 75 0 0.0 1.0 0.00 0.00 0.00 94 1018.5
20260831064059 75 0 0.0 1.0 0.00 0.00 0.00 94 1018.5
20260831063558 75 0 0.0 1.0 0.00 0.00 0.00 94 1018.7
20260831063102 75 0 0.0 1.0 0.00 0.00 0.00 94 1018.7
20260831062601 75 108 0.0 1.0 0.00 0.00 0.00 94 1018.6
20260831062058 75 0 0.0 1.0 0.00 0.00 0.00 94 1018.6
20260831061602 75 0 0.0 1.0 0.00 0.00 0.00 94 1018.5
20260831061057 75 0 0.0 1.0 0.00 0.00 0.00 94 1018.5
20260831060557 75 0 0.0 1.0 0.00 0.00 0.00 94 1018.6
20260831055558 75 0 0.0 0.0 0.00 0.00 0.00 93 1018.7
20260831055058 75 0 0.0 0.0 0.00 0.00 0.00 93 1018.8
20260831054605 75 0 0.0 0.0 0.00 0.00 0.00 93 1018.7
20260831054059 75 0 0.0 0.0 0.00 0.00 0.00 93 1018.6
20260831053602 76 0 0.0 0.0 0.00 0.00 0.00 93 1018.6
20260831053101 76 0 0.0 0.0 0.00 0.00 0.00 93 1018.5
20260831052600 76 0 0.0 0.0 0.00 0.00 0.00 92 1018.6
20260831052058 76 0 0.0 0.0 0.00 0.00 0.00 92 1018.5
20260831051604 76 0 0.0 0.0 0.00 0.00 0.00 92 1018.5
20260831051059 76 0 0.0 0.0 0.00 0.00 0.00 92 1018.6
20260831050558 76 0 0.0 0.0 0.00 0.00 0.00 92 1018.6
20260831050106 76 0 0.0 1.0 0.00 0.00 0.00 91 1018.6
20260831045558 76 0 0.0 1.0 0.00 0.00 0.00 91 1018.6
20260831045056 77 0 0.0 0.0 0.00 0.00 0.00 91 1018.6
20260831044610 77 0 0.0 0.0 0.00 0.00 0.00 90 1018.6
20260831044057 77 0 0.0 1.0 0.00 0.00 0.00 91 1018.7
20260831043555 77 0 0.0 1.0 0.00 0.00 0.00 91 1018.7
20260831043106 77 0 0.0 0.0 0.00 0.00 0.00 91 1018.7
20260831042626 77 0 0.0 0.0 0.00 0.00 0.00 90 1018.8
20260831042058 77 0 0.0 0.0 0.00 0.00 0.00 90 1018.7
20260831041605 77 0 0.0 0.0 0.00 0.00 0.00 91 1018.7
20260831041058 77 0 0.0 0.0 0.00 0.00 0.00 90 1018.7
20260831040558 77 0 0.0 0.0 0.00 0.00 0.00 89 1018.8
20260831040103 78 0 0.0 0.0 0.00 0.00 0.00 89 1018.8
20260831035555 78 0 0.0 0.0 0.00 0.00 0.00 89 1018.8
20260831035058 78 0 0.0 1.0 0.00 0.00 0.00 88 1018.9
20260831034607 78 0 0.0 1.0 0.00 0.00 0.00 92 1018.8
20260831034058 78 116 0.0 1.0 0.00 0.00 0.00 88 1018.9
20260831033558 78 0 0.0 1.0 0.00 0.00 0.00 88 1018.7
20260831033100 78 0 0.0 1.0 0.00 0.00 0.00 91 1018.9
20260831032558 78 114 0.0 1.0 0.00 0.00 0.00 91 1018.8
20260831032055 78 0 0.0 1.0 0.00 0.00 0.00 89 1018.9
20260831031605 78 248 0.0 0.0 0.00 0.00 0.00 90 1018.9
20260831031102 78 0 0.0 0.0 0.00 0.00 0.00 90 1018.9
20260831030602 78 0 0.0 1.0 0.00 0.00 0.00 90 1018.9
20260831030108 78 0 0.0 1.0 0.00 0.00 0.00 90 1018.8
20260831025558 78 0 0.0 1.0 0.00 0.00 0.00 92 1018.8
20260831025058 78 0 0.0 0.0 0.00 0.00 0.00 90 1018.7
20260831024626 78 0 0.0 0.0 0.00 0.00 0.00 90 1018.7
20260831024058 78 0 0.0 0.0 0.00 0.00 0.00 91 1018.7
20260831023557 78 0 0.0 0.0 0.00 0.00 0.00 91 1018.7
20260831023105 78 0 0.0 0.0 0.00 0.00 0.00 91 1018.7
20260831022558 78 0 0.0 0.0 0.00 0.00 0.00 91 1018.8